Regional Weather Roundup
Issued by NWS Binghamton, NY

Home | Current Version | Previous Version | Text Only | Print | Product List | Glossary On
Versions: 1 2 3 4 5 6 7 8 9 10 11 12 13 14 15 16 17 18 19 20 21 22 23 24 25 26 27
000
ASUS41 KBGM 250110
RWRBGM

REGIONAL WEATHER ROUNDUP
NATIONAL WEATHER SERVICE BINGHAMTON NY
900 PM EDT WED AUG 24 2016

Note: "fair" indicates few or no clouds below 12,000 feet with no
significant weather and/or obstructions to visibility.

* = Station(s) that does not report precipitation, such as rain,
snow, etc, also no thunder or fog.

NYZ009-015>018-022>025-036-037-044>046-055>057-062-250200
...Central New York...

CITY           SKY/WX    TMP DP  RH WIND       PRES   REMARKS
Binghamton     CLEAR     70  58  65 S6        30.17R
Cortland       FAIR      72  59  64 CALM      30.14R
Dansville      CLOUDY    73  64  73 S6        30.08R
Elmira         CLOUDY    73  62  68 W3        30.11R
Ithaca         CLOUDY    74  61  63 S10       30.14R
Hamilton       CLEAR     72  61  68 SE6       30.14R
Hornell        CLEAR     70  63  78 SE3       30.14S
Monticello     CLEAR     70  61  73 SW6       30.21S
Norwich        CLEAR     70  59  68 CALM      30.15R
Oneonta        CLEAR     70  57  64 CALM      30.18S
Penn Yan       CLOUDY    78  60  53 S7        30.10S
Rome           PTCLDY    74  63  68 SE7       30.10R
Sidney         CLEAR     73  64  73 SW5       30.15S
Syracuse       CLOUDY    77  58  51 S8        30.06S
$$

PAZ038>040-043-044-047-048-072-250200
...Northeast Pennsylvania...

CITY           SKY/WX    TMP DP  RH WIND       PRES   REMARKS
Hazleton       CLEAR     72  61  68 SE3       30.24S
Scranton       CLEAR     75  62  64 S7        30.16F
$$
&&
KEY
WCI = Wind Chill Index
VSB = Visibility
HX  = Heat Index
$$




USA.gov is the U.S. government's official web portal to all federal, state and local government web resources and services.